Hourly Data Report for October 29, 2014

All times are specified in Local Standard Time (LST). Add 1 hour to adjust for Daylight Saving Time where and when it is observed.

OTTAWA INTL A
ONTARIO

45°19'00.000" N
75°40'00.000" W
114.90 m
6106001
71628
YOW

Download Data

Hourly Data (October 2014)
Hourly Data Report for October 29, 2014
Temp Definition
°C
Dew Point Temp Definition
°C
Rel Hum Definition
%
Wind Dir Definition
10's deg

Wind Spd Definition
km/h
Visibility Definition
km
Stn Press Definition
kPa
Hmdx Definition


Wind Chill Definition


Weather Definition


TIME
00:00 Legend Double Dagger 9.9 9.9 100 24 9 24.1 99.42     LegendNANA
01:00 Legend Double Dagger 10.1 9.8 98 22 11 24.1 99.45     Mainly Clear
02:00 Legend Double Dagger 10.0 9.6 97 23 7 24.1 99.46     LegendNANA
03:00 Legend Double Dagger 9.6 9.3 98 21 8 24.1 99.46     LegendNANA
04:00 Legend Double Dagger 10.1 9.7 97 20 8 24.1 99.44     Cloudy
05:00 Legend Double Dagger 10.4 10.0 97 19 7 16.1 99.41     LegendNANA
06:00 Legend Double Dagger 10.7 9.8 94 20 13 16.1 99.40     LegendNANA
07:00 Legend Double Dagger 10.4 9.0 91 22 17 16.1 99.43     Mostly Cloudy
08:00 Legend Double Dagger 10.1 7.9 86 23 24 24.1 99.51     LegendNANA
09:00 Legend Double Dagger 10.1 7.4 83 23 23 24.1 99.54     LegendNANA
10:00 Legend Double Dagger 10.4 7.1 80 22 21 24.1 99.55     Mostly Cloudy
11:00 Legend Double Dagger 11.2 6.0 70 23 23 24.1 99.55     LegendNANA
12:00 Legend Double Dagger 11.4 3.0 56 23 31 24.1 99.50     LegendNANA
13:00 Legend Double Dagger 11.8 2.9 54 26 24 24.1 99.50     Mostly Cloudy
14:00 Legend Double Dagger 12.8 3.3 52 24 23 24.1 99.48     LegendNANA
15:00 Legend Double Dagger 11.9 2.9 54 25 25 24.1 99.50     LegendNANA
16:00 Legend Double Dagger 11.4 3.0 56 24 18 24.1 99.51     Mostly Cloudy
17:00 Legend Double Dagger 9.5 4.3 70 26 13 24.1 99.58     LegendNANA
18:00 Legend Double Dagger 8.8 4.6 75 24 10 24.1 99.65     LegendNANA
19:00 Legend Double Dagger 8.9 4.4 73 25 16 24.1 99.67     Cloudy
20:00 Legend Double Dagger 8.6 4.3 74 24 15 24.1 99.68     LegendNANA
21:00 Legend Double Dagger 8.1 4.2 76 25 17 24.1 99.70     LegendNANA
22:00 Legend Double Dagger 8.1 4.0 75 27 18 24.1 99.73     Cloudy
23:00 Legend Double Dagger 7.8 3.9 76 28 26 24.1 99.76     LegendNANA

Notes on Data Quality.

Legend

  • E = Estimated
  • M = Missing
  • NA = Not Available
  • ‡ = Partner data that is not subject to review by the National Climate Archives
Date modified: